Total_Precipitation_Accumulation
1.99 2.11 3.22 3.32 2.84 2.60 2.68 2.54 2.46 2.43 2.39 2.34 2.22 2.12 2.03 1.85 1.62 1.48 1.30 1.20 1.16 1.22 1.20 1.18 1.17 1.07 0.97 0.88 0.93 1.04 1.06 1.20 1.24 1.22 1.32 1.40 1.41 1.55 1.72 1.97 2.24 2.44 2.22
1.71 2.07 3.19 3.22 2.76 2.38 2.38 2.34 2.38 2.37 2.31 2.21 2.09 2.09 1.91 1.79 1.64 1.44 1.26 1.21 1.16 1.23 1.32 1.35 1.26 1.11 0.96 0.91 0.97 1.09 1.08 1.18 1.27 1.33 1.58 1.73 1.72 1.75 1.63 1.82 2.12 2.39 2.22
1.61 1.83 2.46 2.92 2.68 2.30 2.17 2.23 2.31 2.25 2.20 2.13 2.05 2.10 1.77 1.65 1.61 1.48 1.35 1.33 1.31 1.33 1.34 1.40 1.41 1.28 1.09 1.04 1.10 1.19 1.23 1.26 1.31 1.42 1.99 2.74 2.12 1.86 1.94 2.06 2.23 2.15 2.15
1.56 1.62 1.98 2.69 2.54 2.26 2.18 2.26 2.29 2.23 2.19 2.17 2.07 1.90 1.63 1.58 1.56 1.54 1.52 1.50 1.41 1.38 1.43 1.46 1.48 1.37 1.24 1.16 1.17 1.21 1.35 1.40 1.48 1.54 1.96 2.60 2.49 2.11 1.98 2.10 2.25 2.05 2.08
1.47 1.59 2.12 2.53 2.36 2.17 2.01 2.06 2.16 2.15 2.10 2.13 2.04 1.77 1.57 1.43 1.41 1.47 1.54 1.50 1.45 1.43 1.37 1.36 1.32 1.26 1.26 1.19 1.16 1.19 1.25 1.33 1.54 1.44 1.72 2.30 2.71 2.28 1.87 2.03 2.22 2.11 2.10
1.36 1.49 1.86 2.24 2.21 2.07 1.90 1.94 1.82 1.76 1.79 1.91 1.84 1.65 1.48 1.49 1.44 1.46 1.47 1.40 1.40 1.37 1.30 1.23 1.20 1.17 1.13 1.08 1.07 1.13 1.21 1.29 1.32 1.46 1.83 2.35 2.61 2.25 1.82 1.90 2.15 2.27 2.33
1.31 1.28 1.51 1.86 1.93 1.91 1.90 1.83 1.76 1.63 1.68 1.70 1.63 1.55 1.46 1.47 1.46 1.43 1.31 1.19 1.19 1.25 1.23 1.23 1.19 1.11 1.05 1.01 1.02 1.06 1.17 1.11 1.11 1.48 1.81 2.25 2.22 2.05 1.75 1.87 2.24 2.48 2.53
1.30 1.19 1.27 1.54 1.62 1.56 1.58 1.81 1.84 1.57 1.63 1.61 1.48 1.45 1.45 1.39 1.39 1.33 1.16 1.13 1.16 1.24 1.24 1.16 1.13 1.06 1.04 1.03 1.07 1.11 1.20 0.94 0.81 1.13 1.49 2.03 2.29 2.14 1.78 1.79 2.07 2.31 2.51
1.40 1.25 1.17 1.13 1.21 1.36 1.56 1.59 1.53 1.56 1.68 1.63 1.42 1.36 1.38 1.23 1.12 1.10 1.12 1.20 1.19 1.24 1.24 1.16 1.08 1.02 1.07 1.13 1.16 1.15 1.13 0.96 0.88 1.12 1.24 1.81 2.30 2.22 1.88 1.78 1.92 2.06 2.28
1.25 1.13 1.01 0.92 0.97 1.07 1.23 1.37 1.40 1.42 1.51 1.49 1.39 1.41 1.43 1.20 1.05 1.09 1.13 1.30 1.29 1.27 1.31 1.23 1.09 1.04 1.07 1.17 1.11 1.01 0.95 0.80 0.82 0.99 1.39 1.69 2.39 2.36 1.97 1.75 1.74 1.78 1.85
1.08 1.00 0.93 0.83 0.86 0.93 1.00 1.07 1.21 1.26 1.30 1.23 1.12 1.17 1.10 0.89 0.85 0.96 1.01 1.34 1.46 1.51 1.46 1.38 1.28 1.16 1.10 1.08 1.03 0.91 0.75 0.68 0.84 1.01 1.38 1.90 2.35 2.32 1.94 1.69 1.67 1.58 1.53
1.09 0.99 0.88 0.86 0.84 0.83 0.82 1.08 1.26 1.10 1.02 0.92 0.94 0.90 0.90 0.93 0.97 0.85 0.96 1.23 1.23 1.27 1.31 1.29 1.28 1.14 0.91 0.78 0.79 0.76 0.64 0.73 0.80 0.90 1.27 2.00 2.32 2.32 2.02 1.72 1.55 1.47 1.40
1.07 0.95 0.82 0.84 0.78 0.72 0.82 0.98 1.17 1.21 1.18 1.14 0.98 0.98 0.94 0.86 0.82 0.71 0.72 0.84 0.87 0.95 0.95 1.04 1.07 0.90 0.74 0.70 0.70 0.64 0.63 0.72 0.80 0.89 1.32 2.11 2.44 2.41 2.23 1.88 1.64 1.52 1.49
0.97 0.98 0.83 0.80 0.71 0.62 0.58 0.67 0.83 0.89 0.90 0.92 0.93 0.86 0.87 0.92 0.90 0.79 0.80 0.86 0.89 0.87 0.97 1.02 1.04 0.93 0.77 0.64 0.62 0.65 0.72 0.76 0.85 1.04 1.38 1.96 2.38 2.48 2.50 2.19 1.95 1.77 1.65
0.99 0.94 0.90 0.84 0.77 0.77 0.74 0.67 0.63 0.67 0.73 0.79 0.87 0.80 0.74 0.81 0.90 0.89 0.86 0.94 0.92 0.93 0.99 0.97 0.85 0.86 0.80 0.68 0.67 0.70 0.78 0.80 0.93 1.04 1.24 1.64 2.19 2.73 2.88 2.67 2.28 2.03 1.97
0.91 0.98 0.96 0.88 0.84 0.77 0.73 0.72 0.72 0.68 0.70 0.73 0.81 0.75 0.68 0.69 0.75 0.86 0.87 0.96 0.92 0.97 1.05 0.93 0.87 0.89 0.88 0.76 0.70 0.74 0.76 0.80 0.88 1.03 1.15 1.40 1.74 2.30 2.87 2.98 2.70 2.39 2.19
0.80 0.90 0.97 0.95 0.94 0.84 0.78 0.78 0.78 0.75 0.70 0.72 0.76 0.68 0.63 0.69 0.70 0.83 0.92 0.96 0.96 0.98 0.99 1.01 1.00 0.95 0.87 0.81 0.81 0.77 0.75 0.79 0.97 1.09 1.14 1.29 1.35 1.46 2.04 2.72 2.96 2.82 2.58
0.79 0.80 0.88 0.87 0.91 0.91 0.88 0.88 0.85 0.79 0.77 0.81 0.81 0.74 0.69 0.70 0.74 0.96 1.04 0.96 1.02 1.12 1.15 1.19 1.15 1.06 0.99 0.99 1.01 0.97 0.88 0.93 1.11 1.19 1.13 1.10 1.15 1.09 1.25 1.65 2.06 2.37 2.68
0.74 0.74 0.76 0.77 0.95 0.97 0.92 0.98 0.97 0.94 1.00 1.02 1.01 0.96 0.88 0.84 0.93 1.12 1.21 1.12 1.10 1.27 1.26 1.16 1.21 1.26 1.22 1.26 1.19 1.19 1.13 1.13 1.14 1.09 1.08 1.14 1.19 1.18 1.20 1.10 1.26 1.57 2.16
0.67 0.66 0.69 0.73 0.86 0.96 1.09 1.17 1.23 1.23 1.23 1.36 1.42 1.37 1.17 1.12 1.17 1.33 1.45 1.43 1.38 1.52 1.54 1.43 1.55 1.61 1.53 1.57 1.45 1.36 1.29 1.26 1.22 1.18 1.17 1.24 1.36 1.27 1.29 1.19 1.14 1.02 1.32
0.58 0.56 0.62 0.75 0.90 1.04 1.16 1.28 1.51 1.67 1.76 1.75 1.74 1.80 1.71 1.50 1.57 1.69 1.68 1.91 1.98 1.97 2.00 1.96 2.13 2.18 1.90 1.76 2.11 2.06 1.64 1.33 1.21 1.27 1.35 1.40 1.52 1.55 1.50 1.44 1.37 1.15 1.07
0.49 0.52 0.57 0.71 0.94 1.15 1.35 1.51 1.68 2.00 2.16 2.15 2.19 2.11 2.04 1.91 1.92 1.84 1.93 2.18 2.25 2.37 2.47 2.32 2.48 2.59 2.28 1.98 2.44 2.93 2.50 2.01 1.40 1.16 1.27 1.44 1.62 1.66 1.59 1.47 1.46 1.40 1.30
0.35 0.42 0.50 0.61 0.83 1.14 1.43 1.65 1.83 2.06 2.31 2.41 2.29 2.24 2.24 2.29 2.32 2.20 2.15 2.30 2.35 2.45 2.68 2.73 2.68 2.81 2.76 2.39 2.36 2.93 2.92 2.52 2.08 1.52 1.34 1.41 1.61 1.73 1.78 1.77 1.61 1.59 1.49
0.35 0.41 0.50 0.61 0.75 0.97 1.23 1.54 1.80 2.07 2.37 2.42 2.36 2.34 2.37 2.44 2.48 2.42 2.37 2.45 2.50 2.51 2.63 2.69 2.67 2.94 3.18 2.92 2.61 2.39 2.35 2.38 2.42 2.04 1.61 1.47 1.62 1.73 1.88 1.81 1.83 1.88 1.83
0.42 0.46 0.58 0.70 0.80 0.96 1.21 1.54 1.84 2.03 2.22 2.40 2.40 2.29 2.21 2.28 2.25 2.19 2.30 2.46 2.50 2.51 2.53 2.70 2.81 3.03 3.08 3.03 2.91 2.74 2.56 2.38 2.03 2.10 2.02 1.76 1.71 1.64 1.78 1.96 2.03 2.07 2.01
0.51 0.61 0.73 0.83 0.98 1.11 1.20 1.32 1.47 1.67 1.96 2.12 2.25 2.25 2.23 2.23 2.11 2.01 2.10 2.18 2.29 2.36 2.35 2.41 2.58 2.74 2.96 3.11 3.05 2.87 2.81 2.74 2.51 2.33 2.04 1.88 1.94 1.80 1.71 1.75 1.87 1.96 2.11